SM4IVE-5 Weather Reports


Display with metric or nautical units.
time (UTC)temp
F
wind
direction
speed
MPH
gust
MPH
rain 1hr
in
rain 24hr
in
rain mn
in
humidity
%
barometer
mb
20260905125828 61 360 2.0 9.0 0.00 0.00 0.00 80 1001.2
20260905125329 61 360 4.0 9.0 0.00 0.00 0.00 80 1001.1
20260905124850 61 360 2.0 6.0 0.00 0.00 0.00 81 1001.0
20260905124331 61 360 2.0 4.0 0.00 0.00 0.00 83 1001.1
20260905123850 61 360 1.0 4.0 0.00 0.00 0.00 83 1001.1
20260905123329 60 360 1.0 5.0 0.00 0.00 0.00 84 1001.1
20260905122830 60 360 2.0 5.0 0.00 0.00 0.00 84 1001.0
20260905122331 59 360 1.0 4.0 0.00 0.00 0.00 83 1001.0
20260905121831 59 360 1.0 2.0 0.00 0.00 0.00 85 1001.0
20260905121348 59 360 0.0 3.0 0.00 0.00 0.00 86 1001.0
20260905120827 59 360 1.0 3.0 0.00 0.00 0.00 86 1001.0
20260905120327 59 360 1.0 6.0 0.00 0.00 0.00 85 1001.0
20260905115828 59 360 2.0 8.0 0.00 0.00 0.00 84 1000.9
20260905115335 59 360 2.0 8.0 0.00 0.00 0.00 85 1000.9
20260905114843 59 360 2.0 4.0 0.00 0.00 0.00 87 1000.8
20260905114345 59 360 1.0 4.0 0.00 0.00 0.00 85 1000.7
20260905113824 60 360 2.0 5.0 0.00 0.00 0.00 84 1000.7
20260905113352 60 360 1.0 5.0 0.00 0.00 0.00 83 1000.6
20260905112831 60 360 2.0 6.0 0.00 0.00 0.00 84 1000.6
20260905112330 60 360 3.0 6.0 0.00 0.00 0.00 85 1000.6
20260905111837 60 360 0.0 3.0 0.00 0.00 0.00 86 1000.6
20260905111324 59 360 1.0 3.0 0.00 0.00 0.00 86 1000.6
20260905110830 59 360 2.0 3.0 0.00 0.00 0.00 87 1000.6
20260905110331 59 360 0.0 4.0 0.00 0.00 0.00 88 1000.5
20260905105830 58 360 1.0 5.0 0.00 0.00 0.00 87 1000.5
20260905105330 58 360 1.0 5.0 0.00 0.00 0.00 87 1000.5
20260905104850 59 360 1.0 4.0 0.00 0.00 0.00 87 1000.4
20260905104329 59 360 2.0 4.0 0.00 0.00 0.00 89 1000.4
20260905103830 59 360 1.0 3.0 0.00 0.00 0.00 89 1000.3
20260905103351 59 360 2.0 4.0 0.00 0.00 0.00 89 1000.3
20260905102831 59 360 1.0 4.0 0.00 0.00 0.00 92 1000.3
20260905102331 58 360 2.0 5.0 0.00 0.00 0.00 92 1000.2
20260905101858 58 360 2.0 5.0 0.00 0.00 0.00 92 1000.2
20260905101324 57 360 1.0 5.0 0.00 0.00 0.00 93 1000.2
20260905100831 57 360 2.0 3.0 0.00 0.00 0.00 95 1000.3
20260905100351 56 360 0.0 3.0 0.00 0.00 0.00 95 1000.2
20260905095830 56 360 1.0 3.0 0.00 0.00 0.00 95 1000.1
20260905095351 55 360 1.0 4.0 0.00 0.00 0.00 95 1000.2
20260905094832 56 360 1.0 4.0 0.00 0.00 0.00 95 1000.1
20260905094331 56 360 2.0 4.0 0.00 0.00 0.00 96 1000.2
20260905093831 56 360 1.0 4.0 0.00 0.00 0.00 96 1000.1
20260905093332 55 360 1.0 2.0 0.00 0.00 0.00 96 1000.0
20260905092840 55 360 0.0 2.0 0.00 0.00 0.00 96 1000.0
20260905092328 55 360 1.0 3.0 0.00 0.00 0.00 96 1000.0
20260905091837 55 360 1.0 3.0 0.00 0.00 0.00 96 999.9
20260905091324 55 360 2.0 3.0 0.00 0.00 0.00 96 1000.0
20260905090832 55 360 1.0 3.0 0.00 0.00 0.00 96 999.9
20260905090331 55 360 1.0 3.0 0.00 0.00 0.00 96 999.8
20260905085831 55 360 1.0 3.0 0.00 0.00 0.00 96 999.8
20260905085331 55 360 1.0 3.0 0.00 0.00 0.00 96 999.8
20260905084831 55 360 1.0 3.0 0.00 0.00 0.00 96 999.8
20260905084332 55 360 1.0 4.0 0.00 0.00 0.00 97 999.7
20260905083831 55 360 1.0 4.0 0.00 0.00 0.00 96 999.6
20260905083331 55 360 1.0 3.0 0.00 0.00 0.00 96 999.6
20260905082827 55 360 1.0 3.0 0.00 0.00 0.00 96 999.5
20260905082335 54 360 1.0 3.0 0.00 0.00 0.00 96 999.6
20260905081829 54 360 1.0 3.0 0.00 0.00 0.00 97 999.6
20260905081325 54 360 1.0 3.0 0.00 0.00 0.00 96 999.4
20260905080826 54 360 1.0 2.0 0.00 0.00 0.00 96 999.4
20260905080326 54 360 1.0 2.0 0.00 0.00 0.00 96 999.4
20260905075848 54 360 1.0 3.0 0.00 0.00 0.00 96 999.4
20260905075327 54 360 1.0 3.0 0.00 0.00 0.00 96 999.3
20260905074827 54 360 2.0 4.0 0.00 0.00 0.00 96 999.3
20260905074326 54 360 1.0 4.0 0.00 0.00 0.00 96 999.3
20260905073827 54 360 2.0 4.0 0.00 0.00 0.00 96 999.2
20260905073328 53 360 1.0 4.0 0.00 0.00 0.00 96 999.1
20260905072829 53 360 2.0 3.0 0.00 0.00 0.00 96 999.1
20260905072330 53 360 0.0 2.0 0.00 0.00 0.00 96 999.1
20260905071851 53 360 1.0 2.0 0.00 0.00 0.00 96 999.1
20260905071351 53 360 1.0 2.0 0.00 0.00 0.00 96 999.0
20260905070830 53 360 1.0 4.0 0.00 0.00 0.00 96 999.0
20260905070330 53 360 1.0 4.0 0.00 0.00 0.00 96 998.9
20260905065830 53 360 1.0 3.0 0.00 0.00 0.00 96 998.8
20260905065331 53 360 1.0 2.0 0.00 0.00 0.00 96 998.8
20260905064830 53 360 1.0 2.0 0.00 0.00 0.00 96 998.7
20260905064336 53 360 1.0 2.0 0.00 0.00 0.00 96 998.6
20260905063824 52 360 0.0 2.0 0.00 0.00 0.00 96 998.6
20260905063331 52 360 1.0 3.0 0.00 0.00 0.00 96 998.5
20260905062831 52 284 1.0 3.0 0.00 0.00 0.00 96 998.4
20260905062351 52 285 1.0 3.0 0.00 0.00 0.00 96 998.4
20260905061830 52 284 1.0 4.0 0.00 0.00 0.00 96 998.4
20260905061329 52 286 1.0 3.0 0.00 0.00 0.00 96 998.3
20260905060830 52 286 2.0 4.0 0.00 0.00 0.00 96 998.2
20260905060349 52 286 1.0 4.0 0.00 0.00 0.00 96 998.2
20260905055830 52 286 1.0 3.0 0.00 0.00 0.00 96 998.2
20260905055331 52 286 1.0 3.0 0.00 0.00 0.00 96 998.2
20260905054830 52 286 1.0 3.0 0.00 0.00 0.00 96 998.1
20260905054332 52 286 1.0 3.0 0.00 0.00 0.00 96 998.1
20260905053852 52 286 1.0 4.0 0.00 0.00 0.00 96 998.1
20260905053352 51 286 1.0 5.0 0.00 0.00 0.00 96 998.1
20260905052837 51 286 2.0 6.0 0.00 0.00 0.00 96 998.1
20260905052325 51 286 1.0 5.0 0.00 0.00 0.00 96 998.0
20260905051832 51 286 2.0 6.0 0.00 0.00 0.00 96 998.0
20260905051338 51 286 2.0 4.0 0.00 0.00 0.00 96 997.9
20260905050826 51 286 1.0 3.0 0.00 0.00 0.00 96 997.9
20260905050333 51 286 1.0 3.0 0.00 0.00 0.00 96 997.8
20260905045859 51 286 1.0 2.0 0.00 0.00 0.00 96 997.8
20260905045325 51 286 1.0 2.0 0.00 0.00 0.00 96 997.7
20260905044832 51 286 0.0 2.0 0.00 0.00 0.00 96 997.7
20260905044337 51 286 1.0 2.0 0.00 0.00 0.00 96 997.6
20260905043824 51 286 1.0 3.0 0.00 0.00 0.00 96 997.6
20260905043331 51 286 1.0 3.0 0.00 0.00 0.00 96 997.5
20260905042831 51 286 1.0 2.0 0.00 0.00 0.00 96 997.5
20260905042331 51 286 0.0 3.0 0.00 0.00 0.00 96 997.6
20260905041839 51 286 1.0 3.0 0.00 0.00 0.00 96 997.5
20260905041325 51 286 2.0 3.0 0.00 0.00 0.00 96 997.4
20260905040830 51 286 2.0 3.0 0.00 0.00 0.00 96 997.3
20260905040332 50 286 2.0 4.0 0.00 0.00 0.00 96 997.3
20260905035852 50 286 2.0 3.0 0.00 0.00 0.00 96 997.3
20260905035347 50 286 1.0 3.0 0.00 0.00 0.00 96 997.3
20260905034827 50 286 1.0 3.0 0.00 0.00 0.00 96 997.3
20260905034327 51 286 1.0 2.0 0.00 0.00 0.00 96 997.2
20260905033827 51 286 0.0 2.0 0.00 0.00 0.00 96 997.0
20260905033347 51 286 1.0 3.0 0.00 0.00 0.00 96 997.0
20260905032826 51 286 2.0 3.0 0.00 0.00 0.00 96 996.9
20260905032325 51 286 1.0 3.0 0.00 0.00 0.00 96 996.9
20260905031825 51 286 1.0 3.0 0.00 0.00 0.00 96 996.9
20260905031326 51 286 1.0 2.0 0.00 0.00 0.00 96 996.9
20260905030832 51 286 1.0 2.0 0.00 0.00 0.00 96 996.9
20260905030353 51 286 0.0 3.0 0.00 0.00 0.00 96 996.9
20260905025852 51 286 1.0 3.0 0.00 0.00 0.00 96 996.9
20260905025340 51 286 1.0 3.0 0.00 0.00 0.00 96 996.8
20260905024848 51 286 1.0 3.0 0.00 0.00 0.00 96 996.8
20260905024328 51 286 1.0 3.0 0.00 0.00 0.00 96 996.8
20260905023836 51 286 0.0 4.0 0.00 0.00 0.00 96 996.8
20260905023345 51 286 1.0 4.0 0.00 0.00 0.00 96 996.8
20260905022832 51 287 1.0 4.0 0.00 0.00 0.00 96 996.8
20260905022339 51 288 1.0 4.0 0.00 0.00 0.00 96 996.8
20260905021828 52 290 2.0 4.0 0.00 0.00 0.00 96 996.7
20260905021328 51 290 1.0 4.0 0.00 0.00 0.00 96 996.7
20260905020837 52 314 1.0 2.0 0.00 0.00 0.00 96 996.7
20260905020327 51 314 1.0 4.0 0.00 0.00 0.00 96 996.6
20260905015849 52 314 1.0 3.0 0.00 0.00 0.00 96 996.5
20260905015330 52 314 1.0 3.0 0.00 0.00 0.00 96 996.5
20260905014830 52 314 1.0 3.0 0.00 0.00 0.00 96 996.5
20260905014331 52 314 2.0 3.0 0.00 0.00 0.00 96 996.5
20260905013831 52 314 1.0 3.0 0.00 0.00 0.00 96 996.4
20260905013352 52 314 1.0 3.0 0.00 0.00 0.00 96 996.4
20260905012836 52 314 1.0 3.0 0.00 0.00 0.00 96 996.4
20260905012325 52 314 1.0 3.0 0.00 0.00 0.00 96 996.3
20260905011830 52 336 1.0 3.0 0.00 0.00 0.00 96 996.3
20260905011331 52 336 1.0 2.0 0.00 0.00 0.00 96 996.3
20260905010830 52 336 1.0 1.0 0.00 0.00 0.00 96 996.3
20260905010330 52 336 0.0 3.0 0.00 0.00 0.00 96 996.3
20260905005830 52 336 1.0 4.0 0.00 0.00 0.00 96 996.2
20260905005330 52 336 1.0 4.0 0.00 0.00 0.00 96 996.3
20260905004859 52 336 1.0 4.0 0.00 0.00 0.00 96 996.2
20260905004328 52 336 1.0 5.0 0.00 0.00 0.00 96 996.1
20260905003829 52 348 1.0 5.0 0.00 0.00 0.00 96 996.1
20260905003330 52 323 1.0 3.0 0.00 0.00 0.00 96 996.0
20260905002830 52 323 1.0 2.0 0.00 0.00 0.00 96 996.0
20260905002331 52 323 1.0 2.0 0.00 0.00 0.00 96 996.0
20260905001900 52 323 1.0 2.0 0.00 0.00 0.00 96 995.9
20260905001329 52 323 1.0 3.0 0.00 0.00 0.00 96 995.9
20260905000828 52 323 1.0 5.0 0.00 0.00 0.00 96 995.9
20260905000329 52 323 2.0 5.0 0.00 0.00 0.00 96 996.0
20260904235846 52 304 1.0 3.0 0.00 0.00 0.00 96 996.0
20260904235326 52 304 1.0 3.0 0.00 0.00 0.00 96 995.9
20260904234835 52 304 1.0 4.0 0.00 0.00 0.00 96 995.9
20260904234328 52 304 1.0 3.0 0.00 0.00 0.00 96 995.9
20260904233829 52 307 1.0 3.0 0.00 0.00 0.00 96 995.9
20260904233329 52 304 1.0 3.0 0.00 0.00 0.00 96 995.9
20260904232831 52 302 1.0 3.0 0.00 0.00 0.00 96 995.9
20260904232339 52 334 1.0 3.0 0.00 0.00 0.00 96 995.9
20260904231827 52 334 1.0 2.0 0.00 0.00 0.00 96 995.9
20260904231329 52 334 0.0 2.0 0.00 0.00 0.00 96 995.8
20260904230828 52 334 1.0 2.0 0.00 0.00 0.00 96 995.8
20260904230330 52 334 1.0 3.0 0.00 0.00 0.00 96 995.8
20260904225847 52 334 2.0 3.0 0.00 0.00 0.00 96 995.7
20260904225327 52 334 1.0 3.0 0.00 0.00 0.00 96 995.7
20260904224848 52 334 1.0 3.0 0.00 0.00 0.00 96 995.7
20260904224328 52 334 1.0 3.0 0.00 0.00 0.00 96 995.7
20260904223836 52 334 0.0 3.0 0.00 0.00 0.00 96 995.7
20260904223405 52 334 1.0 3.0 0.00 0.00 0.00 96 995.7
20260904222852 52 341 1.0 3.0 0.00 0.00 0.00 96 995.7
20260904222332 52 341 1.0 3.0 0.00 0.00 0.00 96 995.7
20260904221832 52 342 1.0 3.0 0.00 0.00 0.00 96 995.7
20260904221336 52 341 1.0 2.0 0.00 0.00 0.00 96 995.7
20260904220825 52 342 0.0 2.0 0.00 0.00 0.00 96 995.7
20260904220334 52 341 1.0 2.0 0.00 0.00 0.00 96 995.7
20260904215842 52 342 0.0 3.0 0.00 0.00 0.00 96 995.7
20260904215349 52 341 2.0 3.0 0.00 0.00 0.00 96 995.7
20260904214836 52 343 1.0 2.0 0.00 0.00 0.00 96 995.7
20260904214325 52 342 1.0 2.0 0.00 0.00 0.00 96 995.6
20260904213826 52 343 1.0 3.0 0.00 0.00 0.00 96 995.6
20260904213326 52 343 2.0 2.0 0.00 0.00 0.00 96 995.6
20260904212827 51 343 1.0 2.0 0.00 0.00 0.00 95 995.6
20260904212329 52 343 1.0 2.0 0.00 0.00 0.00 95 995.5
20260904211850 51 342 1.0 3.0 0.00 0.00 0.00 95 995.5
20260904211329 51 343 1.0 4.0 0.00 0.00 0.00 95 995.5
20260904210850 51 343 1.0 4.0 0.00 0.00 0.00 95 995.4
20260904210329 51 310 1.0 3.0 0.00 0.00 0.00 95 995.3
20260904205839 51 310 1.0 2.0 0.00 0.00 0.00 95 995.3
20260904205328 52 310 1.0 2.0 0.00 0.00 0.00 95 995.4
20260904204848 52 310 1.0 3.0 0.00 0.00 0.00 95 995.4
20260904204330 52 310 2.0 3.0 0.00 0.00 0.00 96 995.3
20260904203830 52 310 1.0 3.0 0.00 0.00 0.00 96 995.3
20260904203351 52 310 2.0 3.0 0.00 0.00 0.00 95 995.3
20260904202831 52 306 2.0 3.0 0.00 0.00 0.00 95 995.3
20260904202400 52 306 2.0 5.0 0.00 0.00 0.00 95 995.4
20260904201828 52 337 1.0 5.0 0.00 0.00 0.00 95 995.4
20260904201349 52 296 2.0 3.0 0.00 0.00 0.00 95 995.4
20260904200828 52 296 1.0 3.0 0.00 0.00 0.00 95 995.4
20260904200328 52 355 2.0 3.0 0.00 0.00 0.00 95 995.3
20260904195849 52 309 2.0 4.0 0.00 0.00 0.00 95 995.4
20260904195329 52 290 2.0 4.0 0.00 0.00 0.00 95 995.3
20260904194829 52 308 2.0 3.0 0.00 0.00 0.00 95 995.2
20260904194325 52 308 2.0 3.0 0.00 0.00 0.00 95 995.2
20260904193835 52 308 2.0 3.0 0.00 0.00 0.00 95 995.2
20260904193329 52 308 2.0 3.0 0.00 0.00 0.00 95 995.2
20260904192830 52 308 2.0 3.0 0.00 0.00 0.00 95 995.2
20260904192331 52 307 1.0 3.0 0.00 0.00 0.00 95 995.2
20260904191829 52 308 2.0 3.0 0.00 0.00 0.00 95 995.2
20260904191329 52 311 1.0 3.0 0.00 0.00 0.00 95 995.2
20260904190829 52 310 1.0 3.0 0.00 0.00 0.00 95 995.2
20260904190329 52 311 1.0 3.0 0.00 0.00 0.00 95 995.1
20260904185832 52 311 2.0 3.0 0.00 0.00 0.00 95 995.1
20260904185327 52 331 1.0 4.0 0.00 0.00 0.00 95 995.0
20260904184827 52 332 2.0 4.0 0.00 0.00 0.00 95 995.1
20260904184327 52 340 2.0 4.0 0.00 0.00 0.00 95 995.0
20260904183847 52 341 1.0 3.0 0.00 0.00 0.00 95 994.9
20260904183326 52 341 1.0 3.0 0.00 0.00 0.00 95 994.8
20260904182828 52 341 0.0 5.0 0.00 0.00 0.00 95 994.7
20260904182349 52 341 1.0 5.0 0.00 0.00 0.00 95 994.6
20260904181828 52 342 1.0 6.0 0.00 0.00 0.00 95 994.7
20260904181336 52 341 2.0 6.0 0.00 0.00 0.00 95 994.6
20260904180825 52 342 2.0 6.0 0.00 0.00 0.00 95 994.7
20260904180325 53 326 3.0 8.0 0.00 0.00 0.00 95 994.9
20260904175826 53 321 3.0 8.0 0.00 0.00 0.00 95 994.9
20260904175327 53 304 2.0 6.0 0.00 0.00 0.00 95 994.9
20260904174826 53 327 1.0 2.0 0.00 0.00 0.00 95 994.8
20260904174327 53 327 0.0 6.0 0.00 0.00 0.00 95 994.7
20260904173828 53 92 1.0 6.0 0.00 0.00 0.00 95 994.6
20260904173328 53 98 0.0 8.0 0.00 0.00 0.00 95 994.6
20260904172829 53 102 2.0 8.0 0.00 0.00 0.00 95 994.6
20260904172331 53 130 4.0 9.0 0.00 0.00 0.00 95 994.6
20260904171852 53 82 1.0 8.0 0.00 0.00 0.00 95 994.6
20260904171331 53 91 4.0 8.0 0.00 0.00 0.00 95 994.7
20260904170831 53 113 3.0 8.0 0.00 0.00 0.00 95 994.6
20260904170353 53 67 1.0 8.0 0.00 0.00 0.00 95 994.6
20260904165831 53 94 2.0 9.0 0.00 0.00 0.00 95 994.7
20260904165331 53 109 4.0 9.0 0.00 0.00 0.00 95 994.7
20260904164831 53 96 1.0 9.0 0.00 0.00 0.00 95 994.8
20260904164339 53 85 1.0 9.0 0.00 0.00 0.00 95 994.8
20260904163828 53 74 1.0 9.0 0.00 0.00 0.00 95 994.9
20260904163327 53 125 2.0 9.0 0.00 0.00 0.00 95 994.9
20260904162836 53 105 3.0 9.0 0.00 0.00 0.00 95 994.9
20260904162325 54 110 3.0 10.0 0.00 0.00 0.00 95 995.0
20260904161833 54 102 4.0 10.0 0.00 0.00 0.00 95 995.0
20260904161330 54 115 3.0 7.0 0.00 0.00 0.00 94 995.1
20260904160830 54 84 1.0 9.0 0.00 0.00 0.00 95 995.2
20260904160338 54 75 3.0 9.0 0.00 0.00 0.00 95 995.2
20260904155828 54 113 1.0 12.0 0.00 0.00 0.00 95 995.3
20260904155328 54 84 7.0 12.0 0.00 0.00 0.00 95 995.4
20260904154828 54 103 4.0 10.0 0.00 0.00 0.00 95 995.4
20260904154329 54 90 5.0 10.0 0.00 0.00 0.00 94 995.5
20260904153829 54 44 5.0 9.0 0.00 0.00 0.00 94 995.6
20260904153330 54 109 4.0 8.0 0.00 0.00 0.00 94 995.6
20260904152852 55 103 3.0 10.0 0.00 0.00 0.00 94 995.7
20260904152330 55 121 3.0 10.0 0.00 0.00 0.00 94 995.8
20260904151831 55 69 3.0 8.0 0.00 0.00 0.00 94 995.9
20260904151338 55 119 2.0 7.0 0.00 0.00 0.00 94 995.8
20260904150828 55 77 2.0 8.0 0.00 0.00 0.00 94 995.9
20260904150329 55 107 2.0 7.0 0.00 0.00 0.00 94 996.0
20260904145830 54 82 2.0 4.0 0.00 0.00 0.00 94 996.0
20260904145331 54 121 0.0 4.0 0.00 0.00 0.00 94 996.0
20260904144830 54 113 0.0 4.0 0.00 0.00 0.00 94 996.0
20260904144340 55 113 2.0 9.0 0.00 0.00 0.00 94 996.1
20260904143828 54 107 3.0 9.0 0.00 0.00 0.00 94 996.2
20260904143328 54 113 2.0 11.0 0.00 0.00 0.00 94 996.2
20260904142829 55 113 8.0 11.0 0.00 0.00 0.00 94 996.2
20260904142330 55 109 5.0 10.0 0.00 0.00 0.00 94 996.2
20260904141830 55 101 4.0 8.0 0.00 0.00 0.00 94 996.3
20260904141353 55 109 4.0 8.0 0.00 0.00 0.00 94 996.3
20260904140829 56 101 3.0 8.0 0.00 0.00 0.00 94 996.3
20260904140329 56 110 3.0 8.0 0.00 0.00 0.00 94 996.5
20260904135829 56 88 1.0 4.0 0.00 0.00 0.00 94 996.5
20260904135330 56 70 1.0 5.0 0.00 0.00 0.00 94 996.6
20260904134830 56 132 3.0 6.0 0.00 0.00 0.00 94 996.6
20260904134330 55 94 2.0 6.0 0.00 0.00 0.00 93 996.6
20260904133838 55 78 2.0 6.0 0.00 0.00 0.00 93 996.6
20260904133346 55 98 2.0 4.0 0.00 0.00 0.00 93 996.7
20260904132834 56 98 2.0 4.0 0.00 0.00 0.00 93 996.8
20260904132357 56 109 2.0 3.0 0.00 0.00 0.00 92 996.8
20260904131829 56 83 1.0 4.0 0.00 0.00 0.00 92 996.9
20260904131329 56 99 2.0 4.0 0.00 0.00 0.00 91 996.9
20260904130830 56 124 2.0 4.0 0.00 0.00 0.00 91 996.9
20260904130347 56 126 2.0 5.0 0.00 0.00 0.00 91 997.0